Regional Weather Roundup
Issued by NWS Charleston, SC

Current Version | Previous Version | Graphics & Text | Print | Product List | Glossary On
Versions: 1 2 3 4 5 6 7 8 9 10 11 12 13 14 15 16 17 18 19 20 21 22 23 24 25 26 27 28 29 30 31 32 33 34 35 36 37 38 39 40 41 42 43 44 45 46 47 48 49 50
000 ASUS42 KCHS 220627 RWRCHS REGIONAL WEATHER ROUNDUP NATIONAL WEATHER SERVICE CHARLESTON SC 200 AM EDT SUN OCT 22 2017 NOTE: "FAIR" INDICATES FEW OR NO CLOUDS BELOW 12,000 FEET WITH NO SIGNIFICANT WEATHER AND/OR OBSTRUCTIONS TO VISIBILITY. NOT ALL STATIONS ARE QUALITY CONTROLLED. USE DATA WITH CAUTION... ESPECIALLY DEWPOINT OBSERVATIONS. SCZ027-030-031-034>040-042>050-220700- ...SOUTHEAST SOUTH CAROLINA... CITY SKY/WX TMP DP RH WIND PRES REMARKS N CHARLESTON MOCLDY 68 66 93 E7 30.26F 6HR MIN TEMP: 67; 6HR MAX TEMP: 70; WATERFRONT PRK N/A 72 68 87 NE10 30.10F JOHNS ISLAND FAIR 72 68 88 NE7 30.25F PINOPOLIS N/A 68 66 94 E6 30.19F MONCKS CORNER FAIR 64 63 94 NE5 30.27F SUMMERVILLE FAIR 61 61 100 CALM 30.28S BEAUFORT MCAS CLOUDY 71 68 90 MISG 30.25F 6HR MIN TEMP: 70; 6HR MAX TEMP: 73; BEAUFORT ARPT CLOUDY 70 68 94 NE8 30.24S HILTON HEAD IS CLOUDY 73 70 88 NE7 30.24F WALTERBORO CLOUDY 64 63 94 E6 30.27S ALLENDALE N/A 66 64 94 CALM N/A ...SOUTHERN MIDLANDS AND PEE DEE... CITY SKY/WX TMP DP RH WIND PRES REMARKS GEORGETOWN FAIR 61 59 94 CALM 30.29S KINGSTREE FAIR 55 55 100 CALM 30.29F ORANGEBURG CLOUDY 60 59 96 NE3 30.29S 6HR MIN TEMP: 60; 6HR MAX TEMP: 66; BARNWELL N/A 66 64 94 CALM 30.28S AIKEN FAIR 55 54 94 E5 30.32F MANNING FAIR 61 59 94 MISG 30.29S COLUMBIA MOCLDY 57 56 96 CALM 30.29S 6HR MIN TEMP: 57; 6HR MAX TEMP: 68; SUMTER PTCLDY 56 53 89 N5 30.28S 6HR MIN TEMP: 56; 6HR MAX TEMP: 63; FLORENCE PTCLDY 58 58 100 CALM 30.31S 6HR MIN TEMP: 58; 6HR MAX TEMP: 67; MYRTLE BEACH CLEAR 71 66 84 E8 30.30S N MYRTLE BEACH CLEAR 64 64 100 NE6 30.29F 6HR MIN TEMP: 63; 6HR MAX TEMP: 72; $$ GAZ063-065-086>088-099>101-113>116-118-119-134>141-150-220700- ...SOUTHEAST GEORGIA... CITY SKY/WX TMP DP RH WIND PRES REMARKS SAVANNAH ARPT PTCLDY 69 67 93 NE6 30.23F 6HR MIN TEMP: 68; 6HR MAX TEMP: 73; HUNTER AAF CLEAR 70 67 91 NE6 30.20F 6HR MIN TEMP: 69; 6HR MAX TEMP: 72; FORT STEWART CLOUDY 68 65 91 NE6 30.21F 6HR MIN TEMP: 67; 6HR MAX TEMP: 71; STATESBORO MOCLDY 66 62 84 CALM 30.25S SYLVANIA PTCLDY 65 65 97 E3 30.26S CLAXTON MOCLDY 65 64 96 CALM 30.24S ...CSRA...CENTRAL AND FAR SOUTHEAST GEORGIA... CITY SKY/WX TMP DP RH WIND PRES REMARKS THOMSON PTCLDY 55 53 91 CALM 30.33S AUGUSTA-BUSH CLOUDY 57 54 89 CALM 30.27S 6HR MIN TEMP: 57; 6HR MAX TEMP: 65; AUGUSTA-DANIEL PTCLDY 66 58 75 E5 30.29S SWAINSBORO FAIR 64 64 100 MISG 30.26S VIDALIA PTCLDY 66 64 94 NE5 30.24S EASTMAN FAIR 66 66 99 CALM 30.26S HAZLEHURST FAIR 68 65 89 E6 30.22F ALMA MOCLDY 68 65 90 E3 30.22F 6HR MIN TEMP: 68; 6HR MAX TEMP: 73; WAYCROSS CLOUDY 68 65 90 CALM 30.20F JESUP NOT AVBL BAXLEY FAIR 64 64 100 CALM 30.22S BRUNSWICK CLOUDY 70 64 83 CALM 30.20F SAINT SIMONS CLOUDY 76 71 85 E8 30.19F 6HR MIN TEMP: 74; 6HR MAX TEMP: 76; 6HR PCP: TRACE; $$ SCZ027-028-034-036>038-045-046-048>050-GAZ119-141-220700- ...LAKE AND SUPPLEMENTAL COASTAL OBSERVATIONS... STATION/POSITION TIME TEMP WIND PRES WAVE SWELL AIR SEA DIR/SP/G HT/PER HT/PER/DIR (UTC) (F) (DEG/KT/KT) (MB) (FT/S) (FT/S/D) WINYAH BAY 0545 72 80/ 8 1025.0F LAKE MURRAY 0550 67 90/ 2/ 3 1025.4R ACE BASIN NERRS 0545 70 30/ 2 1025.0S FORT PULASKI 0600 73 73 60/ 10/ 13 1023.8 SAPELO ISLAND NOT AVBL $$ ANZ835-935-AMZ111-154-330-350-352-354-370-450-454-472-220700- ...C-MAN AND BUOY OBSERVATIONS... STATION/POSITION TIME TEMP WIND PRES WAVE SWELL AIR SEA DIR/SP/G HT/PER HT/PER/DIR (UTC) (F) (DEG/KT/KT) (MB) (FT/S) (FT/S/D) BUOY 41004 0610 78 79 100/ 14/ 19 1023.8 BUOY 41008 0550 78 77 100/ 14/ 17 1022.5F 4/ 9 2/120/ 9 FOLLY BEACH CMAN 0600 72 40/ 8/ 10 1025.1F CAPERS NEARSHORE 0608 72 73 90/ 10/ 14 1024.3F FRIPP NEARSHORE 0608 76 100/ 12/ 16 N/A STATION/POSITION TIME TEMP WIND PRES WAVE SWELL AIR SEA DIR/SP/G HT/PER HT/PER/DIR (UTC) (F) (DEG/KT/KT) (MB) (FT/S) (FT/S/D) 5E ST. MARYS GA 0600 76 N/A 5/ 6 FRYING PAN BUOY 0610 76 76 60/ 10/ 12 1025.1 BUOY 41025 0550 75 81 80/ 8/ 10 1026.4F 3/ 8 3/110/ 8 CAPE LOOKOUT NC 0600 73 60/ 8/ 9 1026.0F BUOY 41002 0550 76 80 80/ 12/ 14 1025.0F 4/ 9 3/ 90/ 9 BUOY 41010 NOT AVBL ST AUGUSTINE FL 0600 78 78 110/ 16/ 18 1021.4F $$

USA.gov is the U.S. government's official web portal to all federal, state and local government web resources and services.